sat.trackr.live / text

‹ back to catalog

STARLINK-34528

NORAD 64479 · 2025-133H

PAYLOAD ACTIVE UNKNOWN

§ Identity

Operator
Country
US
Launch date
2025-06-23
Launch site
AFETR
Launch vehicle
Mass (kg)
RCS (m²)

Purposes: comms

External: N2YO · Heavens-Above · Gunter

§ Orbital elements

Epoch: 2026-05-25T02:49:56.133984Z

Period
93.78 min
Inclination
53.1619°
Eccentricity
0.0000179
Mean motion
15.35427804 rev/d
Perigee alt
459.5 km
Apogee alt
459.8 km
Semi-major
6,837.8 km
B*
6.6770e-4
RAAN
119.4020°
Arg perigee
23.0524°
Mean anomaly
337.0487°
Rev number
5,290

§ Raw data

STARLINK-345281 64479U 25133H   26145.11801081  .00023002  00000+0  66770-3 0  99972 64479  53.1619 119.4020 0000179  23.0524 337.0487 15.35427804 52904

JSON: /api/v1/satellites/64479 · /tle

For live sub-satellite position, see the globe view (requires WebGL).

§ Visibility from observer

Set your observer location to see the next 7 days of passes ≥ 10°. The values pass through the URL so the page stays shareable.

No JS? Fill the form by hand. The geolocation button needs JavaScript.